Flag for Canada Weather past 2 weeks in Lethbridge, Alberta, Canada

Now
73 °F

Mostly cloudy.


Feels Like: 77 °F
Forecast: 60 / 81 °F
Wind: 10 mph from Northwest

Location: Lethbridge

Current Time: Aug 4, 2015 at 10:31:11 AM

Latest Report: Aug 4, 2015 at 10:00 AM


Visibility: 15 mi

Pressure: 29.83 "Hg (26.98 "Hg at 872m altitude)

Humidity: 44%

Dew point: 50 °F

Location of LethbridgeLocation

Historic Weather in Lethbridge — Graph

°F

Lethbridge temperature yesterday

Maximum temperature yesterday: 91 °F (at 4:00 PM)
Minimum temperature yesterday: 52 °F (at 6:00 AM)
Average temperature yesterday: 71 °F

Past Weeks' High & Low Weather Summary

 TemperatureHumidityPressure
High95 °F (Aug 1, 3:00 PM)100% (Jul 22, 6:00 AM)30.25 "Hg (Jul 22, 6:00 AM)
Low45 °F (Jul 23, 4:00 AM)13% (Jul 31, 5:00 PM)29.62 "Hg (Jul 21, 8:00 PM)
Average67 °F55%29.91 "Hg
* Reported Jul 20 9:00 AM — Aug 4 9:00 AM, Lethbridge, Weather by CustomWeather, © 2015

Note: Actual official high and low records may vary slightly from our data, if they occured in-between our weather recording intervals... More about our weather records

Advertising

Lethbridge weather history for previous 24 hours

 ConditionsComfort  
Time TempWeatherWind HumidityBarometerVisibility
9:00 AM
Tue, Aug 4
73 °FBroken clouds.10 mph47%29.82 "Hg15 mi
8:00 AM64 °FPartly sunny.6 mph68%29.80 "Hg25 mi
7:00 AM66 °FPartly cloudy.6 mph60%29.78 "Hg25 mi
6:00 AM66 °FPassing clouds.16 mph56%29.77 "Hg25 mi
5:00 AM72 °FClear.20 mph47%29.73 "Hg9 mi
4:00 AM73 °FPassing clouds.29 mph44%29.69 "Hg9 mi
3:00 AM73 °FPassing clouds.20 mph47%29.68 "Hg9 mi
2:00 AM66 °FPassing clouds.13 mph64%29.67 "Hg9 mi
1:00 AM68 °FPassing clouds.6 mph56%29.67 "Hg9 mi
12:00 AM68 °FPartly cloudy.6 mph60%29.67 "Hg9 mi
11:00 PM
Mon, Aug 3
68 °FPassing clouds.12 mph60%29.68 "Hg9 mi
10:00 PM72 °FMore clouds than sun.No wind53%29.69 "Hg15 mi
9:00 PM73 °FBroken clouds.8 mph57%29.68 "Hg15 mi
8:00 PM79 °FBroken clouds.5 mph58%29.69 "Hg15 mi
7:00 PM88 °FBroken clouds.6 mph29%29.69 "Hg15 mi
6:00 PM91 °FPartly sunny.6 mph23%29.70 "Hg15 mi
5:00 PM91 °FScattered clouds.7 mph21%29.72 "Hg15 mi
4:00 PM91 °FScattered clouds.8 mph23%29.75 "Hg20 mi
3:00 PM90 °FScattered clouds.10 mph24%29.76 "Hg20 mi
2:00 PM86 °FScattered clouds.9 mph31%29.80 "Hg20 mi
1:00 PM82 °FScattered clouds.7 mph35%29.83 "Hg20 mi
12:00 PM79 °FBroken clouds.6 mph42%29.85 "Hg20 mi
11:00 AM75 °FBroken clouds.7 mph47%29.86 "Hg20 mi
10:00 AM70 °FBroken clouds.No wind57%29.88 "Hg20 mi
Weather by CustomWeather, © 2015

See weather overviewHow to use our weather pages